Big Bear Station Historical Data
Daily Summary for May 24, 2017 Units:  English    Metric   Both
Next Day »
Daily Weekly Monthly Yearly Custom
  High: Low: Average:
Temperature: 78.8 °F 43.9 °F 59.7 °F
Dew Point: 40.0 °F 17.9 °F 28.9 °F
Humidity: 68% 11% 36%
Wind Speed: 8.3mph 0.0mph 2.2mph
Wind Gust: -999.0mph - -
Wind- - West
Pressure: 30.22 in 30.03 in -
Precipitation: 0.00 in    
Historical Graphs
 
 
Tabular Data for May 24, 2017
Time Temperature Dew Point Pressure Wind Wind Speed Wind Gust Humidity Rainfall Rate (Hourly)
00:14 52.7 °F 22.1 °F 30.22 in Calm   -999.0 mph 30% 0 in
00:29 52.2 °F 25.4 °F 30.22 in Calm   -999.0 mph 35% 0 in
00:45 51.4 °F 26.6 °F 30.21 in Calm   -999.0 mph 38% 0 in
01:00 50.7 °F 27.2 °F 30.21 in Calm   -999.0 mph 40% 0 in
01:15 50.5 °F 31.0 °F 30.20 in Calm   -999.0 mph 47% 0 in
01:30 50.2 °F 31.8 °F 30.20 in Calm   -999.0 mph 49% 0 in
01:45 49.6 °F 30.7 °F 30.20 in Calm   -999.0 mph 48% 0 in
02:01 49.5 °F 33.1 °F 30.20 in Calm   -999.0 mph 53% 0 in
02:16 48.9 °F 34.8 °F 30.19 in Calm   -999.0 mph 58% 0 in
02:31 48.4 °F 34.7 °F 30.19 in Calm   -999.0 mph 59% 0 in
02:46 47.8 °F 33.3 °F 30.19 in Calm   -999.0 mph 57% 0 in
03:02 47.5 °F 31.2 °F 30.18 in Calm   -999.0 mph 53% 0 in
03:17 47.3 °F 30.1 °F 30.18 in Calm   -999.0 mph 51% 0 in
03:32 46.9 °F 31.6 °F 30.18 in Calm   -999.0 mph 55% 0 in
03:47 46.6 °F 30.8 °F 30.17 in Calm   -999.0 mph 54% 0 in
04:02 46.2 °F 29.1 °F 30.17 in Calm   -999.0 mph 51% 0 in
04:18 45.9 °F 28.3 °F 30.17 in Calm   -999.0 mph 50% 0 in
04:33 45.3 °F 29.2 °F 30.17 in Calm   -999.0 mph 53% 0 in
04:48 45.1 °F 29.0 °F 30.16 in Calm   -999.0 mph 53% 0 in
05:03 45.1 °F 31.2 °F 30.16 in South 1.7 mph -999.0 mph 58% 0 in
05:18 44.8 °F 31.8 °F 30.16 in South 1.1 mph -999.0 mph 60% 0 in
05:34 44.2 °F 29.5 °F 30.15 in Calm   -999.0 mph 56% 0 in
05:49 44.2 °F 29.1 °F 30.16 in Calm   -999.0 mph 55% 0 in
06:04 43.9 °F 30.9 °F 30.16 in Calm   -999.0 mph 60% 0 in
06:19 44.1 °F 32.3 °F 30.16 in Calm   -999.0 mph 63% 0 in
06:34 44.2 °F 32.8 °F 30.16 in Calm   -999.0 mph 64% 0 in
06:50 45.0 °F 34.3 °F 30.16 in South 1.7 mph -999.0 mph 66% 0 in
07:05 45.0 °F 35.1 °F 30.16 in Calm   -999.0 mph 68% 0 in
07:20 46.0 °F 35.7 °F 30.15 in Calm   -999.0 mph 67% 0 in
07:36 47.7 °F 37.3 °F 30.15 in Calm   -999.0 mph 67% 0 in
07:51 48.7 °F 38.6 °F 30.15 in Calm   -999.0 mph 68% 0 in
08:06 50.2 °F 40.0 °F 30.15 in Calm   -999.0 mph 68% 0 in
08:21 53.1 °F 37.4 °F 30.15 in Calm   -999.0 mph 55% 0 in
08:36 55.8 °F 32.4 °F 30.15 in Calm   -999.0 mph 41% 0 in
08:52 59.5 °F 22.7 °F 30.15 in Calm   -999.0 mph 24% 0 in
09:07 63.9 °F 23.2 °F 30.14 in NW 2.2 mph -999.0 mph 21% 0 in
09:22 66.7 °F 27.7 °F 30.14 in NW 3.7 mph -999.0 mph 23% 0 in
09:37 66.6 °F 24.3 °F 30.14 in NW 3.2 mph -999.0 mph 20% 0 in
09:52 68.5 °F 27.0 °F 30.14 in North 3.7 mph -999.0 mph 21% 0 in
10:08 68.4 °F 28.1 °F 30.14 in NW 2.7 mph -999.0 mph 22% 0 in
10:23 71.2 °F 24.1 °F 30.14 in NW 4.2 mph -999.0 mph 17% 0 in
10:38 71.8 °F 26.0 °F 30.14 in WNW 3.7 mph -999.0 mph 18% 0 in
10:53 73.2 °F 27.1 °F 30.13 in WNW 5.3 mph -999.0 mph 18% 0 in
11:08 74.7 °F 27.0 °F 30.14 in North 4.2 mph -999.0 mph 17% 0 in
11:24 74.7 °F 28.4 °F 30.14 in NNW 3.7 mph -999.0 mph 18% 0 in
11:39 76.3 °F 26.8 °F 30.14 in NW 6.8 mph -999.0 mph 16% 0 in
11:54 76.8 °F 22.2 °F 30.14 in NNE 2.7 mph -999.0 mph 13% 0 in
12:09 77.2 °F 27.5 °F 30.12 in WNW 5.3 mph -999.0 mph 16% 0 in
12:25 78.4 °F 23.5 °F 30.12 in NW 5.3 mph -999.0 mph 13% 0 in
12:40 77.2 °F 22.5 °F 30.12 in South 3.7 mph -999.0 mph 13% 0 in
12:55 78.4 °F 31.4 °F 30.12 in WNW 4.7 mph -999.0 mph 18% 0 in
13:10 77.4 °F 18.8 °F 30.12 in NW 5.8 mph -999.0 mph 11% 0 in
13:25 75.6 °F 19.4 °F 30.12 in North 5.8 mph -999.0 mph 12% 0 in
13:41 76.8 °F 18.3 °F 30.12 in SSW 4.7 mph -999.0 mph 11% 0 in
13:57 78.8 °F 21.9 °F 30.11 in NW 3.2 mph -999.0 mph 12% 0 in
14:12 77.7 °F 21.0 °F 30.11 in NNW 5.8 mph -999.0 mph 12% 0 in
14:28 75.7 °F 19.5 °F 30.11 in NNW 2.7 mph -999.0 mph 12% 0 in
14:43 76.3 °F 17.9 °F 30.10 in WSW 4.7 mph -999.0 mph 11% 0 in
15:13 74.8 °F 18.8 °F 30.10 in South 5.8 mph -999.0 mph 12% 0 in
15:29 75.2 °F 22.7 °F 30.09 in NW 4.2 mph -999.0 mph 14% 0 in
15:44 73.9 °F 21.7 °F 30.07 in West 4.2 mph -999.0 mph 14% 0 in
15:59 73.6 °F 26.1 °F 30.08 in NW 6.3 mph -999.0 mph 17% 0 in
16:14 70.0 °F 29.4 °F 30.08 in SSE 6.3 mph -999.0 mph 22% 0 in
16:29 73.9 °F 31.5 °F 30.08 in SE 4.2 mph -999.0 mph 21% 0 in
16:45 75.0 °F 33.6 °F 30.07 in SW 1.1 mph -999.0 mph 22% 0 in
17:00 72.1 °F 32.3 °F 30.07 in NNW 5.3 mph -999.0 mph 23% 0 in
17:16 75.0 °F 33.6 °F 30.07 in SSW 3.2 mph -999.0 mph 22% 0 in
17:31 72.7 °F 31.7 °F 30.06 in WSW 7.8 mph -999.0 mph 22% 0 in
17:47 71.4 °F 31.7 °F 30.06 in NNW 5.3 mph -999.0 mph 23% 0 in
18:02 69.8 °F 29.2 °F 30.05 in NNW 6.3 mph -999.0 mph 22% 0 in
18:17 68.7 °F 31.5 °F 30.05 in NNW 8.3 mph -999.0 mph 25% 0 in
18:33 68.5 °F 34.1 °F 30.04 in NNW 4.2 mph -999.0 mph 28% 0 in
18:48 67.8 °F 35.2 °F 30.04 in West 1.7 mph -999.0 mph 30% 0 in
19:03 66.4 °F 36.4 °F 30.04 in NW 3.2 mph -999.0 mph 33% 0 in
19:19 61.7 °F 35.2 °F 30.04 in North 7.3 mph -999.0 mph 37% 0 in
19:34 58.5 °F 33.6 °F 30.04 in SW 2.2 mph -999.0 mph 39% 0 in
19:49 56.5 °F 35.4 °F 30.04 in WSW 2.2 mph -999.0 mph 45% 0 in
20:04 55.4 °F 36.0 °F 30.04 in Calm   -999.0 mph 48% 0 in
20:19 54.5 °F 35.7 °F 30.04 in Calm   -999.0 mph 49% 0 in
20:35 53.8 °F 37.5 °F 30.04 in Calm   -999.0 mph 54% 0 in
20:50 53.6 °F 35.9 °F 30.04 in Calm   -999.0 mph 51% 0 in
21:05 53.4 °F 33.1 °F 30.04 in Calm   -999.0 mph 46% 0 in
21:20 52.9 °F 22.3 °F 30.03 in Calm   -999.0 mph 30% 0 in
21:35 52.5 °F 23.5 °F 30.04 in North 1.7 mph -999.0 mph 32% 0 in
21:51 52.2 °F 21.7 °F 30.04 in SSE 1.1 mph -999.0 mph 30% 0 in
22:06 51.8 °F 27.0 °F 30.04 in WNW 1.7 mph -999.0 mph 38% 0 in
22:21 50.9 °F 23.5 °F 30.04 in South 2.7 mph -999.0 mph 34% 0 in
22:36 50.9 °F 18.9 °F 30.04 in South 1.1 mph -999.0 mph 28% 0 in
22:51 51.3 °F 22.4 °F 30.03 in Calm   -999.0 mph 32% 0 in
23:07 51.3 °F 25.2 °F 30.03 in Calm   -999.0 mph 36% 0 in
23:22 51.3 °F 26.5 °F 30.03 in NNE 2.2 mph -999.0 mph 38% 0 in
23:37 51.8 °F 27.6 °F 30.03 in NNE 2.2 mph -999.0 mph 39% 0 in
23:52 51.6 °F 28.1 °F 30.03 in WNW 2.2 mph -999.0 mph 40% 0 in
Big Bear CA Weather